Stations météo

Publicité
St-Dizier, France (7169): Température de l'air & dewpoint: 14.04.2019 22:00:00 - 20.04.2019 22:00:00 (CEST)St-Dizier, France (7169): Température de l'air 5cm: 14.04.2019 22:00:00 - 20.04.2019 22:00:00 (CEST)St-Dizier, France (7169): Température de l'air -20cm & Température de l'air -100cm: 14.04.2019 22:00:00 - 20.04.2019 22:00:00 (CEST)St-Dizier, France (7169): Vitesse du vent & gusts: 14.04.2019 22:00:00 - 20.04.2019 22:00:00 (CEST)St-Dizier, France (7169): Direction du vent: 14.04.2019 22:00:00 - 20.04.2019 22:00:00 (CEST)St-Dizier, France (7169): reduced air pressure: 14.04.2019 22:00:00 - 20.04.2019 22:00:00 (CEST)St-Dizier, France (7169): visibility: 14.04.2019 22:00:00 - 20.04.2019 22:00:00 (CEST)St-Dizier, France (7169): Ensoleillement: 14.04.2019 22:00:00 - 20.04.2019 22:00:00 (CEST)St-Dizier, France (7169): Quantités de précipitations: 14.04.2019 22:00:00 - 20.04.2019 22:00:00 (CEST)
Date & Time tt [°C] td [°C] tt 5cm [°C] tt -20cm [°C] tt -100cm [°C] ff [km/h] ff [knt] fx [km/h] fx [knt] dd ppp [hPa] vv [km] sd [min] rr [mm]
20.04.2019 22:00:00 16,3 3,4 13,4 15,4 10,6 5 3 13 7 NNE 1022,6 54 0 0,0
20.04.2019 21:00:00 18,2 2,1 16,2 15,3 10,6 9 5 20 11 NE 1022,4 59 14 0,0
20.04.2019 20:00:00 23,0 3,0 22,0 15,0 10,6 14 8 32 17 ENE 1022,1 44 60 0,0
20.04.2019 19:00:00 24,1 1,0 25,5 14,8 10,6 22 12 41 22 NE 1022,0 17 60 0,0
20.04.2019 18:00:00 24,7 2,2 26,5 14,5 10,5 26 14 42 23 NE 1022,3 12 60 0,0
20.04.2019 17:00:00 24,8 3,4 27,3 14,2 10,5 23 13 53 29 ENE 1022,7 10 60 0,0
20.04.2019 16:00:00 25,1 3,1 27,8 13,9 10,5 19 10 42 23 ENE 1023,1 10 60 0,0
20.04.2019 15:00:00 24,6 2,1 27,5 13,8 10,5 20 11 41 22 E 1024,0 7 60 0,0
20.04.2019 14:00:00 23,6 0,0 26,7 13,6 10,5 24 13 45 24 E 1024,5 6 60 0,0
20.04.2019 13:00:00 23,7 1,3 26,1 13,6 10,5 25 14 47 25 E 1025,0 9 60 0,0
20.04.2019 12:00:00 23,2 0,3 25,7 13,6 10,5 22 12 34 19 ENE 1025,3 9 60 0,0
20.04.2019 11:00:00 20,5 6,1 23,1 13,7 10,4 2 1 6 4 NNW 1025,8 45 60 0,0
20.04.2019 10:00:00 17,0 6,2 16,9 13,9 10,4 0 0 5 3 N 1026,3 27 60 0,0
20.04.2019 09:00:00 12,7 6,7 10,3 14,1 10,4 0 0 4 2 N 1026,7 15 49 0,0
20.04.2019 08:00:00 8,8 6,2 5,6 14,3 10,4 3 2 6 3 ESE 1026,7 11 45 0,0
20.04.2019 07:00:00 7,0 5,3 5,2 14,5 10,4 0 0 8 4 N 1026,6 12 0 0,0
20.04.2019 06:00:00 7,0 5,9 4,8 14,7 10,4 5 3 7 4 E 1026,4 9 0 0,0
20.04.2019 05:00:00 7,9 6,7 6,3 14,8 10,3 0 0 4 2 N 1026,5 9 0 0,0
20.04.2019 04:00:00 9,4 6,7 7,0 15,0 10,4 0 0 12 7 N 1026,4 13 0 0,0
20.04.2019 03:00:00 9,8 7,2 8,0 15,0 10,3 0 0 4 2 N 1026,2 16 0 0,0
20.04.2019 02:00:00 10,7 7,0 9,2 15,1 10,3 0 0 9 5 N 1026,4 21 0 0,0
20.04.2019 01:00:00 12,3 7,0 10,3 15,1 10,3 9 5 13 7 E 1026,2 13 0 0,0
20.04.2019 00:00:00 13,3 7,1 11,7 15,1 10,3 9 5 12 7 E 1026,2 28 0 0,0
19.04.2019 23:00:00 16,3 7,0 14,2 15,0 10,3 7 4 13 7 E 1025,9 20 0 0,0
19.04.2019 22:00:00 18,7 6,2 17,5 14,8 10,3 9 5 16 9 NNE 1025,7 57 0 0,0
19.04.2019 21:00:00 19,6 6,7 18,8 14,5 10,3 9 5 13 7 N 1025,3 50 5 0,0
19.04.2019 20:00:00 21,6 7,0 20,3 14,2 10,3 7 4 24 13 ESE 1024,5 57 39 0,0
19.04.2019 19:00:00 23,1 6,8 23,0 13,7 10,2 18 10 26 14 E 1024,2 29 32 0,0
19.04.2019 18:00:00 25,2 4,3 28,3 13,4 10,2 6 4 18 10 E 1024,0 43 60 0,0
19.04.2019 17:00:00 25,0 4,2 29,3 13,0 10,2 9 5 20 11 E 1024,0 33 60 0,0
19.04.2019 16:00:00 24,7 3,3 29,1 12,6 10,2 9 5 19 11 E 1024,2 22 60 0,0
19.04.2019 15:00:00 24,6 5,9 26,5 12,3 10,2 8 4 17 9 E 1024,5 24 40 0,0
19.04.2019 14:00:00 23,6 3,5 27,2 12,2 10,2 5 3 12 6 NNW 1024,8 38 57 1,0
19.04.2019 13:00:00 22,6 4,1 26,0 12,1 10,2 6 3 18 10 NW 1025,1 46 56 -
19.04.2019 12:00:00 22,4 4,0 25,9 12,1 10,1 3 1 19 10 NE 1025,0 39 60 -
19.04.2019 11:00:00 19,8 5,4 17,9 12,2 10,1 7 4 - - ENE 1025,3 32 39 0,0
19.04.2019 10:00:00 16,9 6,1 16,7 12,3 10,1 11 6 25 13 ESE 1025,0 22 55 0,0
19.04.2019 09:00:00 14,3 5,6 13,0 12,4 10,1 19 10 24 13 E 1024,8 18 58 0,0
19.04.2019 08:00:00 11,5 5,4 8,3 12,6 10,1 16 9 21 11 E 1024,5 39 32 0,0
19.04.2019 07:00:00 9,4 4,4 7,3 12,7 10,1 12 7 16 9 ESE 1024,0 38 0 0,0
19.04.2019 06:00:00 9,5 4,3 7,9 12,9 10,1 13 7 17 9 E 1023,2 45 0 0,0
19.04.2019 05:00:00 9,5 4,7 6,3 13,0 10,1 10 5 15 8 E 1023,1 38 0 0,0
19.04.2019 04:00:00 8,2 4,4 6,4 13,2 10,1 0 0 5 3 N 1022,7 27 0 0,0
19.04.2019 03:00:00 9,6 5,0 7,8 13,3 10,1 5 3 9 5 E 1022,4 36 0 0,0
19.04.2019 02:00:00 11,1 5,0 9,1 13,3 10,1 0 0 11 6 N 1022,2 31 0 0,0
19.04.2019 01:00:00 12,3 5,0 9,9 13,4 10,0 8 4 11 6 E 1021,9 42 0 0,0
19.04.2019 00:00:00 14,2 4,7 11,6 13,3 10,0 5 3 17 9 E 1021,6 56 0 0,0
18.04.2019 23:00:00 14,6 4,8 12,0 13,3 10,0 13 7 17 9 E 1021,3 57 0 0,0
18.04.2019 22:00:00 17,1 4,1 13,5 13,1 10,0 8 4 15 8 ENE 1021,1 60 0 0,0
18.04.2019 21:00:00 17,4 3,3 15,9 12,9 10,0 11 6 19 10 ENE 1020,4 60 7 0,0
18.04.2019 20:00:00 21,3 2,5 20,0 12,7 10,0 16 8 24 13 ENE 1019,7 59 57 0,0
18.04.2019 19:00:00 21,7 3,4 23,1 12,4 10,0 13 7 27 15 ESE 1019,3 48 60 0,0
18.04.2019 18:00:00 22,9 1,8 25,0 12,0 10,0 15 8 33 18 ESE 1018,9 35 60 0,0
18.04.2019 17:00:00 23,0 3,0 25,0 11,7 10,0 15 8 35 19 E 1018,8 32 60 0,0
18.04.2019 16:00:00 22,8 2,8 26,3 11,4 9,9 14 8 32 18 E 1019,0 36 60 0,0
18.04.2019 15:00:00 22,1 5,5 25,7 11,2 9,9 17 9 32 17 E 1019,3 15 60 0,0
18.04.2019 14:00:00 21,7 6,4 24,7 11,1 9,9 18 10 30 16 E 1019,5 19 60 0,0
18.04.2019 13:00:00 20,4 6,0 23,5 11,0 9,9 17 9 27 15 E 1019,9 19 60 0,0
18.04.2019 12:00:00 19,3 6,1 22,1 11,0 9,9 18 10 31 17 E 1020,2 21 60 0,0
18.04.2019 11:00:00 18,1 7,2 18,5 11,0 9,9 18 10 26 14 ESE 1020,7 14 60 0,0
18.04.2019 10:00:00 15,7 5,3 15,5 11,2 9,9 20 11 30 16 E 1020,7 14 60 0,0
18.04.2019 09:00:00 13,4 5,8 11,7 11,3 9,9 19 10 28 15 E 1020,7 14 58 0,0
18.04.2019 08:00:00 10,9 6,2 8,6 11,4 9,9 14 7 21 11 ESE 1020,7 15 32 0,0
18.04.2019 07:00:00 9,6 6,3 8,4 11,5 9,9 14 8 21 12 E 1020,3 14 0 0,0
18.04.2019 06:00:00 9,4 6,5 8,2 11,6 9,9 13 7 19 10 E 1019,9 13 0 0,0
18.04.2019 05:00:00 10,0 7,1 8,5 11,8 9,9 12 6 19 10 E 1019,7 13 0 0,0
18.04.2019 04:00:00 10,5 7,2 7,4 11,9 9,8 13 7 16 9 E 1019,8 17 0 0,0
18.04.2019 03:00:00 9,9 7,3 7,5 12,0 9,9 10 5 14 8 E 1019,7 25 0 0,0
18.04.2019 02:00:00 9,8 6,7 7,5 12,1 9,8 9 5 16 9 E 1019,9 46 0 0,0
18.04.2019 01:00:00 11,6 7,3 9,1 12,1 9,8 11 6 18 10 E 1019,5 59 0 0,0
18.04.2019 00:00:00 11,7 7,0 9,1 12,2 9,8 6 4 9 5 E 1019,6 60 0 0,0
17.04.2019 23:00:00 12,2 6,7 9,5 12,1 9,8 6 4 10 6 E 1019,8 60 0 0,0
17.04.2019 22:00:00 12,5 6,3 10,7 12,0 9,8 6 4 10 6 ENE 1019,6 57 0 0,0
17.04.2019 21:00:00 15,9 6,3 14,4 11,9 9,8 11 6 25 13 E 1019,0 60 10 0,0
17.04.2019 20:00:00 17,5 6,4 16,6 11,7 9,8 17 9 25 13 E 1018,4 58 60 0,0
17.04.2019 19:00:00 18,0 6,5 19,0 11,5 9,8 13 7 30 16 ESE 1018,6 44 56 0,0
17.04.2019 18:00:00 18,8 6,3 21,4 11,1 9,8 17 9 28 15 E 1018,4 15 60 0,0
17.04.2019 17:00:00 18,2 5,7 18,2 10,9 9,8 14 8 26 14 E 1019,0 26 35 0,0
17.04.2019 16:00:00 18,8 7,2 18,6 10,6 9,8 5 3 18 10 SE 1019,3 43 27 0,0
17.04.2019 15:00:00 17,4 7,4 18,1 10,3 9,8 13 7 20 11 E 1019,7 49 17 0,0
17.04.2019 14:00:00 16,3 7,0 18,1 10,1 9,8 5 3 14 8 E 1020,0 60 21 0,0
17.04.2019 13:00:00 16,1 7,3 18,4 10,0 9,8 4 2 9 5 NE 1020,5 19 33 0,0
17.04.2019 12:00:00 14,0 7,3 16,5 9,9 9,8 2 1 11 6 SSE 1021,0 20 42 0,0
17.04.2019 11:00:00 13,8 9,0 12,8 9,9 9,8 4 2 9 5 ENE 1021,2 15 33 0,0
17.04.2019 10:00:00 11,7 8,7 11,7 9,9 9,8 3 2 8 4 SE 1021,4 10 0 0,0
17.04.2019 09:00:00 10,7 9,3 10,2 9,9 9,8 4 2 8 4 S 1021,3 7 0 0,0
17.04.2019 08:00:00 10,0 9,1 9,5 9,9 9,8 0 0 7 4 N 1021,0 6 0 0,0
17.04.2019 07:00:00 9,8 8,9 9,5 10,0 9,8 5 3 8 5 SSW 1020,7 5 0 0,0
17.04.2019 06:00:00 9,8 8,9 9,5 10,0 9,8 3 2 7 4 SSE 1020,0 5 0 0,0
17.04.2019 05:00:00 9,8 9,0 9,5 10,0 9,8 5 3 9 5 S 1020,0 5 0 0,0
17.04.2019 04:00:00 9,8 9,2 9,1 10,1 9,8 5 3 7 4 S 1020,0 4,7 0 0,0
17.04.2019 03:00:00 9,5 8,9 8,9 10,1 9,8 5 3 7 4 S 1020,1 3,9 0 0,0
17.04.2019 02:00:00 9,4 8,8 8,1 10,1 9,8 5 3 9 5 S 1020,1 3,5 0 0,0
17.04.2019 01:00:00 9,7 8,9 9,1 10,1 9,8 6 3 11 6 S 1020,0 4,9 0 0,2
17.04.2019 00:00:00 9,9 9,1 9,2 10,1 9,8 8 4 12 6 SSW 1019,8 6 0 0,0
16.04.2019 23:00:00 10,0 9,2 9,4 10,1 9,8 5 3 9 5 SSW 1019,5 8 0 0,0
16.04.2019 22:00:00 10,1 9,2 9,6 10,0 9,8 5 3 12 6 SW 1019,3 11 0 0,0
16.04.2019 21:00:00 10,3 9,5 9,9 9,9 9,8 8 4 16 9 WSW 1018,6 32 0 0,0
16.04.2019 20:00:00 10,7 9,9 10,5 9,9 9,8 5 3 19 10 W 1017,9 20 0 0,4
16.04.2019 19:00:00 11,4 10,5 11,3 9,8 9,8 6 3 15 8 SSW 1017,2 4,6 0 0,2
16.04.2019 18:00:00 11,3 10,4 11,2 9,7 9,8 7 4 16 8 SSW 1017,0 4,4 0 0,4
16.04.2019 17:00:00 11,1 10,2 10,9 9,7 9,8 9 5 20 11 S 1016,7 3,6 0 1,1
16.04.2019 16:00:00 11,0 9,7 11,0 9,6 9,8 10 5 22 12 S 1016,7 7 0 1,4
16.04.2019 15:00:00 11,1 9,8 10,7 9,6 9,8 11 6 22 12 S 1016,8 4,7 0 1,2
16.04.2019 14:00:00 10,7 9,5 10,4 9,6 9,8 10 5 20 11 S 1016,6 6 0 0,4
16.04.2019 13:00:00 10,1 8,7 9,8 9,6 9,8 10 5 21 11 S 1016,9 4,5 0 0,6
16.04.2019 12:00:00 10,2 8,3 9,9 9,6 9,8 12 7 21 11 S 1016,7 14 0 0,4
16.04.2019 11:00:00 10,1 8,4 9,8 9,7 9,8 12 6 21 11 SSE 1016,5 15 0 1,0
16.04.2019 10:00:00 9,7 8,1 9,1 9,7 9,8 14 8 29 15 S 1016,2 13 0 0,6
16.04.2019 09:00:00 10,2 6,2 9,7 9,8 9,8 18 10 39 21 SSW 1015,8 17 0 0,0
16.04.2019 08:00:00 10,1 3,6 6,6 9,9 9,8 11 6 17 9 S 1015,1 58 9 0,0
16.04.2019 07:00:00 8,0 2,0 6,6 10,0 9,8 4 2 13 7 ESE 1014,5 40 0 0,0
16.04.2019 06:00:00 9,1 2,6 7,7 10,1 9,8 8 4 18 10 SSE 1013,9 39 0 0,0
16.04.2019 05:00:00 9,9 3,0 6,2 10,2 9,8 13 7 20 11 SSE 1013,8 28 0 0,0
16.04.2019 04:00:00 7,8 2,3 5,8 10,3 9,8 8 5 13 7 E 1014,1 20 0 0,0
16.04.2019 03:00:00 7,7 2,4 4,0 10,4 9,8 12 7 16 9 ESE 1014,3 20 0 0,0
16.04.2019 02:00:00 6,1 2,0 4,1 10,4 9,8 11 6 14 7 E 1014,9 19 0 0,0
16.04.2019 01:00:00 7,0 2,5 5,5 10,4 9,8 10 5 11 6 E 1015,3 20 0 0,0
16.04.2019 00:00:00 9,4 2,3 6,6 10,4 9,8 7 4 13 7 SE 1014,9 17 0 0,0
15.04.2019 23:00:00 10,7 1,5 7,8 10,3 9,8 8 4 13 7 E 1014,7 40 0 0,0
15.04.2019 22:00:00 11,4 1,9 8,7 10,1 9,8 8 5 17 9 E 1014,6 37 0 0,0
15.04.2019 21:00:00 12,0 1,3 9,0 9,9 9,8 10 6 16 8 ENE 1014,8 30 0 0,0
15.04.2019 20:00:00 14,9 1,7 13,1 9,5 9,8 11 6 24 13 SE 1014,7 57 36 0,0
15.04.2019 19:00:00 16,9 1,7 17,8 9,2 9,8 16 9 36 20 ESE 1014,8 41 60 0,0
15.04.2019 18:00:00 17,3 1,7 20,0 8,9 9,8 21 11 40 21 ESE 1015,2 19 60 0,0
15.04.2019 17:00:00 16,9 2,1 20,2 8,5 9,8 22 12 35 19 ESE 1015,9 14 60 0,0
15.04.2019 16:00:00 16,3 1,6 19,6 8,3 9,8 23 12 36 19 E 1016,7 12 60 0,0
15.04.2019 15:00:00 16,0 1,7 19,6 8,0 9,8 25 13 37 20 E 1017,8 16 60 0,0
15.04.2019 14:00:00 14,8 2,0 18,4 7,9 9,9 23 12 38 21 E 1018,9 13 60 0,0
15.04.2019 13:00:00 12,9 -0,1 17,1 7,8 9,8 20 11 33 18 E 1020,0 18 60 0,0
15.04.2019 12:00:00 12,3 -0,3 15,4 7,8 9,9 19 10 29 16 ESE 1021,1 10 60 0,0
15.04.2019 11:00:00 10,3 -0,2 12,0 7,9 9,9 16 9 31 17 E 1021,5 17 60 0,0
15.04.2019 10:00:00 8,1 -0,2 8,4 8,1 9,9 18 10 29 15 ESE 1022,3 12 60 0,0
15.04.2019 09:00:00 5,5 -0,8 4,2 8,2 9,9 11 6 22 12 E 1023,0 15 60 0,0
15.04.2019 08:00:00 3,0 -1,2 -1,0 8,4 9,9 9 5 14 8 E 1023,6 13 46 0,0
15.04.2019 07:00:00 0,4 -2,7 -1,9 8,5 9,9 6 4 11 6 ENE 1023,7 10 0 0,0
15.04.2019 06:00:00 -0,4 -2,6 -3,3 8,7 9,9 0 0 7 4 N 1024,0 7 0 0,0
15.04.2019 05:00:00 -0,2 -2,6 -2,1 8,8 9,9 6 3 12 6 E 1023,9 6 0 0,0
15.04.2019 04:00:00 0,1 -1,5 -2,3 9,0 9,9 3 2 7 4 E 1023,9 5 0 0,0
15.04.2019 03:00:00 -0,1 -2,0 -1,8 9,1 9,9 5 3 10 5 E 1024,3 5 0 0,0
15.04.2019 02:00:00 -0,2 -2,4 -1,8 9,2 9,9 6 4 9 5 E 1024,8 6 0 0,0
15.04.2019 01:00:00 1,3 -1,4 -0,2 9,2 9,9 0 0 4 2 N 1024,8 8 0 0,0
15.04.2019 00:00:00 2,5 -2,2 0,8 9,2 9,9 0 0 3 2 N 1024,5 9 0 0,0
14.04.2019 23:00:00 3,8 -2,6 1,8 9,2 9,9 0 0 8 5 N 1024,2 13 0 0,0
14.04.2019 22:00:00 4,9 -2,7 3,7 9,1 9,9 7 4 16 9 NE 1023,7 14 0 0,0

tt = Température de l'air
td = dewpoint
tt 5cm = Température de l'air 5cm
tt -20cm = Température de l'air -20cm
tt -100cm = Température de l'air -100cm
ff = Vitesse du vent
fx = gusts
dd = Direction du vent
ppp = reduced air pressure
vv = visibility
sd = Ensoleillement
rr = Quantités de précipitations

stations d'obs. à proximité